#timestamp,LO_Frequency,Hit,StdDev 
1457794815.8,286047000.1,N
1457794835.6,286047004.4,N
1457794855.5,286047004.3,N
1457794875.3,286047005.0,N
1457794895.1,286047007.1,Y
1457794915.9,286047003.1,P
1457794935.7,286047002.8,P
1457794955.5,286046998.4,P
1457794975.3,286046994.9,N
1457794995.2,286046993.8,N
1457795015.0,286046996.1,N
1457795015.9,286046996.1,N
1457795035.7,286046996.3,N
1457795055.6,286046997.9,N
1457795075.4,286046996.0,N
1457795095.2,286046995.9,N
1457795115.1,286046994.3,N
1457795116.0,286046994.3,N
1457795135.8,286046994.2,N
1457795155.6,286046994.2,N
1457795175.5,286046994.6,N
1457795195.3,286046993.3,N
1457795215.1,286046995.0,N
1457795235.9,286046996.4,N
1457795255.7,286046997.5,N
1457795275.5,286046999.9,N
1457795295.3,286047001.5,N
1457795315.2,286047004.0,N
1457795335.0,286047000.7,N
1457795335.9,286047000.7,N
1457795355.7,286046998.5,N
1457795375.6,286046998.1,N
1457795395.4,286047002.4,N
1457795415.2,286047003.4,N
1457795435.1,286047003.3,N
1457795436.0,286047003.3,N
1457795455.8,286047003.8,N
1457795475.6,286047003.3,N
1457795495.5,286047002.0,N
1457795515.3,286047000.7,N
1457795535.1,286046998.3,N
1457795555.9,286046995.2,N
1457795575.7,286046996.2,N
1457795595.5,286046997.1,N
1457795615.3,286046997.0,N
1457795635.2,286047000.3,N
1457795655.0,286047003.7,N
1457795655.9,286047003.7,N
1457795675.7,286047002.7,N
1457795695.6,286047000.1,N
1457795715.4,286047001.7,N
1457795735.2,286047002.7,N
1457795755.1,286046998.4,N
1457795756.0,286046998.4,N
1457795775.8,286046996.7,N
1457795795.6,286046992.6,N
1457795815.5,286046990.5,Y
1457795835.3,286046991.1,P
1457795855.1,286046985.5,P
1457795875.9,286046987.5,N
1457795895.7,286046989.4,N
1457795915.5,286046982.4,Y
1457795935.4,286046990.8,P
1457795955.2,286046990.8,P
1457795975.0,286046990.1,P
1457795975.9,286046990.1,Y
1457795995.8,286046998.7,P
1457796015.6,286046998.1,N
1457796035.4,286046999.4,N
1457796055.3,286046998.6,N
1457796075.1,286046998.5,N
1457796076.0,286046998.5,N
1457796095.8,286047001.5,N
1457796115.7,286047002.3,N
1457796135.5,286047000.9,N
1457796155.3,286047002.4,N
1457796175.2,286047005.5,N
1457796195.9,286047008.8,N
1457796215.7,286047007.2,N
1457796235.5,286047008.9,N
1457796255.4,286047010.8,N
1457796275.2,286047010.6,N
1457796295.0,286047006.3,N
1457796295.9,286047006.3,N
1457796315.8,286047006.9,N
1457796335.6,286047007.6,N
1457796355.4,286047008.6,N
1457796375.3,286047008.9,N
1457796395.1,286047010.3,N
1457796396.0,286047010.3,N
1457796415.8,286047011.3,N
1457796435.7,286047014.0,N
1457796455.5,286047011.5,N
1457796475.3,286047015.3,N
1457796495.2,286047014.8,N
1457796515.9,286047014.9,N
1457796535.7,286047015.3,N
1457796555.5,286047012.8,N
1457796575.4,286047010.8,N
1457796595.2,286047008.6,N
1457796615.0,286047013.6,N
1457796616.0,286047013.6,Y
1457796635.8,286047006.1,P
1457796655.6,286047007.0,P
1457796675.4,286047004.5,P
1457796695.3,286047001.3,N
1457796715.1,286047000.9,N
1457796735.8,286046997.4,N
1457796755.7,286046995.1,N
1457796775.5,286046999.3,N
1457796795.3,286047002.8,N
1457796815.2,286047002.3,N
1457796835.9,286047003.1,N
1457796855.7,286047004.6,N
1457796875.6,286047004.9,N
1457796895.4,286047005.5,N
1457796915.2,286047005.0,N
1457796935.1,286047007.2,N
1457796936.0,286047007.2,N
1457796955.8,286047002.9,N
1457796975.6,286046999.7,N
1457796995.4,286047003.2,N
1457797015.3,286047006.9,N
1457797035.1,286047008.7,N
1457797055.8,286047010.0,N
1457797075.7,286047011.7,Y
1457797095.5,286047009.1,P
1457797115.3,286047003.6,N
1457797135.2,286047000.4,N
1457797155.9,286046999.3,N
1457797175.7,286047004.2,N
1457797195.6,286047004.3,N
1457797215.4,286046999.9,N
1457797235.2,286047001.3,N
1457797255.1,286047002.7,N
1457797256.0,286047002.7,N
1457797275.8,286047000.2,N
1457797295.6,286047002.0,N
1457797315.5,286046998.7,N
1457797335.3,286047000.9,N
1457797355.1,286047004.0,N
1457797375.8,286047002.2,N
1457797395.7,286046999.1,N
1457797415.5,286046997.6,N
1457797435.3,286046994.2,N
1457797455.2,286046991.4,N
1457797475.9,286046994.5,N
1457797495.7,286046992.9,N
1457797515.6,286046989.7,N
1457797535.4,286046989.2,N
1457797555.2,286046989.2,N
1457797575.1,286046993.1,N
1457797576.0,286046993.1,N
1457797595.8,286046990.2,N
1457797615.6,286046989.2,N
1457797635.4,286046988.7,N
1457797655.3,286046989.0,N
1457797675.1,286046987.2,N
1457797695.8,286046987.4,N
1457797715.7,286046987.6,N
1457797735.5,286046987.6,N
1457797755.3,286046992.8,N
1457797775.2,286046996.0,N
1457797795.9,286046997.3,N
1457797815.7,286046994.0,N
1457797835.6,286046994.2,N
1457797855.4,286046991.0,N
1457797875.2,286046987.5,N
1457797895.1,286046989.4,N
1457797896.0,286046989.4,N
1457797915.8,286046987.0,Y
1457797935.6,286046995.3,P
1457797955.5,286046998.8,N
1457797975.3,286046998.1,N
1457797995.1,286047002.0,N
1457798015.9,286047001.5,N
1457798035.7,286047003.9,N
1457798055.5,286047001.3,N
1457798075.3,286047002.8,N
1457798095.2,286047002.7,N
1457798115.0,286047003.7,N
1457798115.9,286047003.7,N
1457798135.7,286047004.0,N
1457798155.6,286047007.2,N
1457798175.4,286047005.1,N
1457798195.2,286047007.6,N
1457798215.1,286047004.3,N
1457798216.0,286047004.3,N
1457798235.8,286047001.5,N
1457798255.6,286047005.9,N
1457798275.5,286047003.4,N
1457798295.3,286047008.0,N
1457798315.1,286047010.4,N
1457798335.9,286047010.4,N
1457798355.7,286047012.1,N
1457798375.5,286047011.9,N
1457798395.3,286047011.3,N
